TimePDT,TemperatureF,Dew PointF,Humidity,Sea Level PressureIn,VisibilityMPH,Wind Direction,Wind SpeedMPH,Gust SpeedMPH,PrecipitationIn,Events,Conditions,WindDirDegrees,DateUTC
12:53 AM,54.0,52.0,93,29.97,3.0,ESE,3.5,-,N/A,,Overcast,110,2013-03-16 07:53:00
1:14 AM,53.6,51.8,94,29.97,3.0,Calm,Calm,-,N/A,,Overcast,0,2013-03-16 08:14:00
1:53 AM,55.0,52.0,89,29.98,3.0,Calm,Calm,-,N/A,,Overcast,0,2013-03-16 08:53:00
2:23 AM,55.4,51.8,88,29.98,4.0,SW,3.5,-,N/A,,Overcast,230,2013-03-16 09:23:00
2:53 AM,55.0,52.0,89,29.97,4.0,SE,3.5,-,N/A,,Overcast,140,2013-03-16 09:53:00
3:53 AM,55.0,52.0,89,29.96,3.0,East,4.6,-,N/A,,Overcast,100,2013-03-16 10:53:00
4:53 AM,54.0,51.1,90,29.95,4.0,East,5.8,-,N/A,,Overcast,100,2013-03-16 11:53:00
5:53 AM,53.1,51.1,93,29.96,6.0,Calm,Calm,-,N/A,,Overcast,0,2013-03-16 12:53:00
6:53 AM,53.1,50.0,89,29.97,6.0,Calm,Calm,-,N/A,,Overcast,0,2013-03-16 13:53:00
7:53 AM,54.0,50.0,86,29.97,5.0,ESE,3.5,-,N/A,,Overcast,120,2013-03-16 14:53:00
8:53 AM,54.0,48.9,83,29.99,5.0,Calm,Calm,-,N/A,,Haze,0,2013-03-16 15:53:00
9:53 AM,55.0,48.9,80,29.99,6.0,Calm,Calm,-,N/A,,Haze,0,2013-03-16 16:53:00
10:53 AM,57.9,48.9,72,29.99,7.0,Variable,3.5,-,N/A,,Mostly Cloudy,0,2013-03-16 17:53:00
11:02 AM,59.0,48.2,67,29.98,7.0,Calm,Calm,-,N/A,,Scattered Clouds,0,2013-03-16 18:02:00
11:53 AM,62.1,48.9,62,29.97,9.0,Variable,4.6,-,N/A,,Clear,0,2013-03-16 18:53:00
12:53 PM,62.1,50.0,65,29.96,7.0,Variable,6.9,-,N/A,,Clear,0,2013-03-16 19:53:00
1:53 PM,61.0,50.0,67,29.94,8.0,WSW,9.2,-,N/A,,Clear,250,2013-03-16 20:53:00
2:53 PM,60.1,50.0,69,29.92,10.0,WSW,9.2,-,N/A,,Partly Cloudy,250,2013-03-16 21:53:00
3:53 PM,60.1,50.0,69,29.92,9.0,WSW,10.4,-,N/A,,Partly Cloudy,250,2013-03-16 22:53:00
4:15 PM,60.8,50.0,68,29.92,7.0,West,10.4,-,N/A,,Mostly Cloudy,260,2013-03-16 23:15:00
4:53 PM,57.9,50.0,75,29.92,10.0,WSW,10.4,-,N/A,,Overcast,250,2013-03-16 23:53:00
5:46 PM,57.2,51.8,82,29.91,9.0,West,9.2,-,N/A,,Overcast,260,2013-03-17 00:46:00
5:53 PM,57.0,51.1,81,29.91,9.0,West,9.2,-,N/A,,Overcast,270,2013-03-17 00:53:00
6:46 PM,57.2,51.8,82,29.91,10.0,WSW,6.9,-,N/A,,Mostly Cloudy,240,2013-03-17 01:46:00
6:53 PM,55.9,51.1,84,29.91,9.0,SW,5.8,-,N/A,,Mostly Cloudy,220,2013-03-17 01:53:00
7:53 PM,55.9,51.1,84,29.93,10.0,Variable,3.5,-,N/A,,Mostly Cloudy,0,2013-03-17 02:53:00
8:03 PM,57.2,51.8,82,29.94,10.0,WNW,4.6,-,N/A,,Scattered Clouds,290,2013-03-17 03:03:00
8:53 PM,57.0,51.1,81,29.95,10.0,Calm,Calm,-,N/A,,Clear,0,2013-03-17 03:53:00
9:53 PM,55.9,51.1,84,29.96,9.0,Calm,Calm,-,N/A,,Clear,0,2013-03-17 04:53:00
10:53 PM,55.9,51.1,84,29.96,8.0,South,3.5,-,N/A,,Clear,170,2013-03-17 05:53:00
11:17 PM,55.4,51.8,88,29.96,7.0,SE,3.5,-,N/A,,Mostly Cloudy,130,2013-03-17 06:17:00
11:53 PM,55.0,51.1,86,29.96,6.0,ESE,3.5,-,N/A,,Overcast,120,2013-03-17 06:53:00